www.pogodaiklimat.ru

Погода и климат >> Архив погоды >> Австралия >> Северная территория >> Центральное плато Арнем


ПОГОДА на Центральном плато Арнем

  • Прогноз погоды на Центральном плато Арнем
  • Монитор погоды на Центральном плато Арнем

АРХИВ ПОГОДЫ на Центральном плато Арнем

Время (UTC), дата Ветер
(напр.,м/с)
 
Видим.   Явления Облачность Т
(С)
Тd
(С)
f
(%)
Тe
(С)
Тes
(С)
Комфортность P
(гПа)
Po
(гПа)
Тmin
(С)
Tmax
(С)
R
(мм)
R24
(мм)
S
(см)
17 11.09 В 3 н/о н/о +17.2 +9.4 60 +17 +17 1016.8 970.1
20 11.09 В 3 н/о н/о +14.5 +11.3 81 +14 +14 1016.7 970.0
23 11.09 В 6 н/о н/о +20.9 +8.9 46 +22 +22 комфорт 1018.4 971.7
02 12.09 В 8 н/о н/о +27.1 +5.4 25 +26 +26 жарко 1017.7 971.0 +14.2
05 12.09 ЮВ 6 н/о н/о +28.9 +3.7 20 +27 +27 жарко 1014.5 967.9
08 12.09 ЮВ 5 н/о н/о +29.1 +1.6 17 +27 +27 жарко 1013.8 967.3
11 12.09 ЮВ 3 н/о н/о +23.9 +2.1 24 +23 +23 комфорт 1016.0 969.4
14 12.09 В 4 н/о н/о +21.7 +3.9 31 +22 +22 комфорт 1017.0 970.3 +30.8
17 12.09 В 2 н/о н/о +18.4 +9.5 56 +19 +19 1016.3 969.7
20 12.09 В 3 н/о н/о +16.0 +11.4 74 +16 +16 1016.1 969.5
23 12.09 В 6 н/о н/о +22.9 +7.1 36 +24 +24 комфорт 1018.2 971.5
02 13.09 В 7 н/о н/о +27.6 +6.9 27 +27 +27 жарко 1017.0 970.3 +15.2
05 13.09 ЮВ 7 н/о н/о +30.4 +4.9 20 +29 +29 жарко 1013.8 967.3
08 13.09 В 6 н/о н/о +30.2 +2.5 17 +28 +28 жарко 1013.1 966.6
11 13.09 ЮВ 4 н/о н/о +25.3 +3.3 24 +24 +24 комфорт 1015.8 969.2
14 13.09 В 5 н/о н/о +22.6 +4.2 30 +23 +23 комфорт 1016.7 970.0 +31.6
17 13.09 В 4 н/о н/о +19.6 +9.8 53 +21 +21 комфорт 1015.7 969.1
20 13.09 В 7 н/о н/о +18.9 +9.1 53 +19 +19 1015.3 968.7
23 13.09 В 8 н/о н/о +24.3 +7.4 34 +25 +25 комфорт 1017.0 970.3
02 14.09 В 9 н/о н/о +28.5 +7.1 26 +28 +28 жарко 1016.3 969.7 +18.4
05 14.09 В 6 н/о н/о +30.4 +6.3 22 +29 +29 жарко 1013.0 966.5
08 14.09 В 5 н/о н/о +30.0 +7.2 24 +29 +29 жарко 1012.6 966.1
11 14.09 ЮВ 4 н/о н/о +26.2 +7.7 31 +26 +26 жарко 1014.8 968.2
14 14.09 ЮВ 6 н/о н/о +23.2 +4.2 29 +23 +23 комфорт 1016.2 969.6 +32.1
17 14.09 В 4 н/о н/о +20.6 +2.9 31 +21 +21 комфорт 1014.7 968.1
20 14.09 В 3 н/о н/о +17.8 +7.2 50 +18 +18 1015.0 968.4
23 14.09 В 6 н/о н/о +23.8 +9.8 41 +25 +25 комфорт 1016.0 969.4
02 15.09 В 8 н/о н/о +28.8 +9.5 30 +29 +29 жарко 1014.9 968.3 +17.6
05 15.09 В 6 н/о н/о +30.5 +8.3 25 +30 +30 жарко 1012.5 966.0
08 15.09 В 4 н/о н/о +30.3 +6.9 23 +29 +29 жарко 1012.2 965.7
11 15.09 В 2 н/о н/о +25.7 +5.8 28 +25 +25 комфорт 1013.8 967.3
14 15.09 В 4 н/о н/о +23.0 +7.1 36 +24 +24 комфорт 1015.0 968.4 +32.0
17 15.09 ЮВ 4 н/о н/о +20.6 +8.3 45 +22 +22 комфорт 1014.4 967.8
20 15.09 ЮВ 3 н/о н/о +18.0 +11.3 65 +18 +18 1014.6 968.0
23 15.09 ЮВ 4 н/о н/о +20.7 +11.3 55 +23 +23 комфорт 1015.8 969.2
02 16.09 В 5 н/о н/о +25.6 +8.6 34 +26 +26 жарко 1015.3 968.7 +15.8
05 16.09 СВ 5 н/о н/о +28.8 +5.6 23 +28 +28 жарко 1012.8 966.3
08 16.09 В 5 н/о н/о +29.6 +7.5 25 +29 +29 жарко 1011.7 965.3
11 16.09 В 1 н/о н/о +24.3 +8.3 36 +25 +25 комфорт 1013.5 967.0
14 16.09 СВ 3 н/о н/о +22.9 +11.9 50 +25 +25 комфорт 1014.7 968.1 +30.6
17 16.09 ЮВ 3 н/о н/о +21.2 +13.9 63 +24 +24 комфорт 1013.9 967.4
20 16.09 В 2 н/о н/о +18.5 +12.9 70 +20 +20 1014.2 967.7
23 16.09 В 5 н/о н/о +23.6 +12.0 48 +25 +25 комфорт 1016.2 969.6
02 17.09 В 5 н/о н/о +29.9 +7.2 24 +29 +29 жарко 1015.7 969.1 +17.2
05 17.09 В 5 н/о н/о +31.6 +5.9 20 +30 +30 жарко 1012.8 966.3
08 17.09 В 5 н/о н/о +31.5 +6.5 21 +30 +30 жарко 1012.3 965.8
11 17.09 ЮВ 3 н/о н/о +26.2 +7.7 31 +26 +26 жарко 1014.2 967.7
14 17.09 В 3 н/о н/о +23.9 +15.7 60 +27 +27 жарко 1015.8 969.2 +33.5
17 17.09 штиль 0 н/о н/о +19.9 +15.3 75 +22 +22 комфорт 1014.8 968.2
20 17.09 ЮВ 2 н/о н/о +18.4 +14.7 79 +20 +20 1015.4 968.8
23 17.09 В 3 н/о н/о +25.2 +10.3 39 +26 +26 жарко 1017.2 970.5
02 18.09 ЮВ 6 н/о н/о +30.7 +0.2 14 +28 +28 жарко 1015.9 969.3 +16.8
05 18.09 В 7 н/о н/о +32.8 +0.8 13 +30 +30 жарко 1013.0 966.5
08 18.09 В 5 н/о н/о +31.9 +1.1 14 +29 +29 жарко 1012.8 966.3
11 18.09 В 2 н/о н/о +25.3 +2.7 23 +24 +24 комфорт 1014.0 967.5
14 18.09 В 4 н/о н/о +24.5 +5.3 29 +24 +24 комфорт 1015.4 968.8 +33.7
17 18.09 ЮВ 2 н/о н/о +19.6 +4.1 36 +21 +21 комфорт 1013.9 967.4

 

Местоположение метеостанции Центральное плато Арнем (Северная территория, Австралия): широта -13.33 долгота 133.08 высота над уровнем моря 416 м.

В архиве по умолчанию представлена погода на Центральном плато Арнем за последнюю неделю. Архивные данные за месяц целиком и за предыдущие месяцы, начиная с января 2011 года, Вы можете получить, выбрав интересующий диапазон дат из раскрывающегося списка и нажав кнопку "Ввод!".


*Определитесь, кто Вы:
робот инопланетянин человек

Внимание! Время в таблицах - всемирное. Для получения местного времени необходимо прибавить поправку, которая равна 9.5 ч.

Смотрите также архив погоды в соседних городах и на ближайших метеорологических станциях:

Погода в Джаберу (Северная территория, Австралия) (76 км)
Погода в Булман Уимол (Северная территория, Австралия) (140 км)
Погода в Тиндале (Северная территория, Австралия) (153 км)
Погода в Пойнт Стьюарт (Северная территория, Австралия) (179 км)
Погода в Манингриде (Северная территория, Австралия) (189 км)
Погода в Уорруви (Северная территория, Австралия) (190 км)
Погода в Милд Пойнт (Северная территория, Австралия) (209 км)
Погода на Маяке Кейп-Дон (Северная территория, Австралия) (213 км)
Погода в Батчелоре (Северная территория, Австралия) (225 км)
Погода в Милинджимби (Северная территория, Австралия) (239 км)

Пояснения к столбцам:

Ветер - указаны скорость ветра в м/с - средняя за 10 мин, порывы в срок и между сроками (в фигурных скобках) и направление, откуда дует ветер: С - северный, СВ - северо-восточный, В - восточный, ЮВ - юго-восточный, Ю - южный, ЮЗ - юго-западный, З - западный, СЗ - северо-западный.
Видимость - горизонтальная дальность видимости в метрах или километрах. При видимости от 1 до 10 км при отсутствии осадков обычно наблюдается дымка, при ухудшении видимости до 1 км и менее - туман. В сухую погоду видимость может ухудшаться дымом, пылью или мглою.
Явления - указаны атмосферные явления, наблюдавшиеся в срок или в последний час перед сроком; фигурными скобками обозначены явления, наблюдавшиеся между сроками (за 1-3 часа до срока); квадратными скобками обозначены град или гололедные отложения с указанием их диаметра в мм.
Облачность - указаны через наклонную черту общая и нижняя облачность в баллах и высота нижней границы облаков в метрах; квадратными скобками обозначены формы облаков: Ci - перистые, Cs - перисто-слоистые, Cc - перисто-кучевые, Ac - высококучевые, As - высокослоистые, Sc - слоисто-кучевые, Ns - слоисто-дождевые, Cu - кучевые, Cb - кучево-дождевые. Подробнее классификацию облаков см. в Атласе облаков (PDF).
T - Температура воздуха - температура, измеренная на высоте 2 м над землей.
Td - Температура точки росы - температура, при понижении до которой содержащийся в воздухе водяной пар достигнет насыщения.
f - Относительная влажность воздуха - влажноcть воздуха, измеренная на высоте 2 м над землей.
Te - Эффективная температура - температура, которую ощущает одетый по сезону человек в тени. Характеристика душности погоды. При расчете учитывается влияние влажности воздуха и скорости ветра на теплоощущения человека.
Tes - Эффективная температура на солнце - температура, которую ощущает человек, с поправкой на солнечный нагрев. Характеристика знойности погоды. Зависит от высоты солнца над горизонтом, облачности и скорости ветра. Ночью, в пасмурную погоду, а также при ветре 12 м/с и более поправка равна нулю.
P - Атмосферное давление - приведенное к уровню моря атмосферное давление.
Po - Атмосферное давление - измеренное на уровне метеостанции атмосферное давление.
Tmin - Минимальная температура - минимум температуры воздуха на высоте 2 м над землей.
Tmax - Максимальная температура - максимум температуры воздуха на высоте 2 м над землей.
R - Количество осадков - Количество выпавших осадков за период времени, мм. При наведении курсора мыши на число - период времени, за который выпало указанное количество осадков.
R24 - Количество осадков - Количество выпавших осадков за 24 часа, мм.
S - Снежный покров - Высота снежного покрова, см. При наведении курсора мыши на число - состояние снежного покрова и степень покрытия местности в баллах.